Weather History for Aurora, IL

Change the Weather History Date:

Friday, November 9, 2012

  Actual Average Record
Temperature  
Mean Temperature 44 °F 42 °F  
Max Temperature 55 °F 52 °F 74 °F (1999)
Min Temperature 32 °F 31 °F 15 °F (2003)
Degree Days  
Heating Degree Days 21 24  
Month to date heating degree days 249 196  
Since 1 July heating degree days 940 803  
Cooling Degree Days 0 0  
Month to date cooling degree days 0 0  
Year to date cooling degree days 1007 655  
Moisture  
Dew Point 39 °F    
Average Humidity 81    
Maximum Humidity 100    
Minimum Humidity 61    
Precipitation  
Precipitation 0.00 in 0.10 in 1.19 in (2000)
Month to date precipitation 0.12 1.07  
Year to date precipitation 21.61 32.83  
Sea Level Pressure  
Sea Level Pressure 30.05 in    
Wind  
Wind Speed 6 mph (SE)    
Max Wind Speed 12 mph    
Max Gust Speed 15 mph    
Visibility 5 miles    
Events      
T = Trace of Precipitation, MM = Missing Value Source: NWS Daily Summary

Daily Weather History Graph

Daily Weather History Graph

Search for Another Location

Airport:

Trip Planner

Search our weather history database for the weather conditions in past years. The results will help you decide how hot, cold, wet, or windy it might be!

Date:

Astronomy

Nov. 09, 2012 Rise Set
Actual Time 6:36 AM CST 4:38 PM CST
Civil Twilight 6:07 AM CST 5:08 PM CST
Nautical Twilight 5:33 AM CST 5:41 PM CST
Astronomical Twilight 5:01 AM CST 6:14 PM CST
Moon 1:31 AM CST (11/9) 1:55 PM CST (11/9)
Length of Visible Light 11h 01m
Length of Day
10h 02m
Waning Crescent, 23% of the Moon is Illuminated
Nov 9
Waning Crescent
Nov 13
New
Nov 20
First Quarter
Nov 28
Full
Dec 6
Last Quarter

Hourly Weather History & Observations

Time (CST) Temp. Windchill Dew Point Humidity Pressure Visibility Wind Dir Wind Speed Gust Speed Precip Events Conditions
12:52 AM 33.1 °F - 32.0 °F 96% 30.12 in 3.0 mi Calm Calm - N/A   Clear
1:52 AM 32.0 °F 27.5 °F 30.9 °F 96% 30.12 in 3.0 mi East 4.6 mph - N/A   Clear
2:52 AM 34.0 °F 29.8 °F 33.1 °F 96% 30.10 in 3.0 mi SE 4.6 mph - N/A   Clear
3:39 AM 33.8 °F 28.6 °F 32.0 °F 93% 30.08 in 2.5 mi SE 5.8 mph - N/A   Clear
3:52 AM 33.1 °F 28.7 °F 32.0 °F 96% 30.09 in 2.5 mi SE 4.6 mph - N/A   Clear
4:52 AM 33.1 °F 30.0 °F 33.1 °F 100% 30.10 in 2.5 mi SE 3.5 mph - N/A   Clear
5:52 AM 33.1 °F 30.0 °F 32.0 °F 96% 30.09 in 2.5 mi ESE 3.5 mph - N/A   Scattered Clouds
6:45 AM 33.8 °F 30.8 °F 32.0 °F 93% 30.08 in 1.5 mi SE 3.5 mph - N/A   Clear
6:52 AM 33.1 °F 28.7 °F 32.0 °F 96% 30.11 in 1.5 mi SE 4.6 mph - N/A   Partly Cloudy
7:52 AM 37.0 °F 32.4 °F 36.0 °F 96% 30.10 in 2.0 mi SE 5.8 mph - N/A   Overcast
8:38 AM 39.2 °F 34.2 °F 37.4 °F 93% 30.07 in 3.0 mi SSE 6.9 mph - N/A   Overcast
8:52 AM 41.0 °F 37.1 °F 37.9 °F 89% 30.09 in 3.0 mi SSE 5.8 mph - N/A   Overcast
9:52 AM 44.1 °F 39.5 °F 39.0 °F 82% 30.08 in 5.0 mi SSE 8.1 mph - N/A   Haze
10:52 AM 48.9 °F - 42.1 °F 77% 30.07 in 6.0 mi SSE 9.2 mph - N/A   Haze
11:52 AM 50.0 °F - 42.1 °F 74% 30.06 in 6.0 mi SSE 5.8 mph - N/A   Haze
12:52 PM 52.0 °F - 43.0 °F 71% 30.03 in 7.0 mi SE 6.9 mph - N/A   Mostly Cloudy
1:52 PM 52.0 °F - 43.0 °F 71% 30.00 in 7.0 mi ESE 8.1 mph - N/A   Overcast
2:52 PM 55.0 °F - 43.0 °F 64% 30.00 in 7.0 mi ESE 8.1 mph - N/A   Partly Cloudy
3:52 PM 55.0 °F - 45.0 °F 69% 29.99 in 7.0 mi SE 6.9 mph - N/A   Mostly Cloudy
4:52 PM 51.1 °F - 45.0 °F 80% 29.99 in 8.0 mi SE 5.8 mph - N/A   Clear
5:52 PM 48.9 °F - 44.1 °F 83% 29.99 in 7.0 mi ESE 5.8 mph - N/A   Clear
6:52 PM 48.9 °F - 44.1 °F 83% 29.99 in 6.0 mi East 6.9 mph - N/A   Haze
7:52 PM 51.1 °F - 46.0 °F 83% 29.99 in 7.0 mi East 4.6 mph - N/A   Overcast
8:52 PM 52.0 °F - 46.0 °F 80% 29.99 in 8.0 mi ESE 5.8 mph - N/A   Overcast
9:52 PM 48.9 °F - 45.0 °F 86% 29.99 in 7.0 mi East 5.8 mph - N/A   Partly Cloudy
10:52 PM 48.0 °F - 44.1 °F 86% 29.99 in 6.0 mi East 4.6 mph - N/A   Scattered Clouds
11:52 PM 52.0 °F - 46.0 °F 80% 29.99 in 8.0 mi ESE 4.6 mph - N/A   Overcast